Погода в Нью Брансуике

США     40°27′00″N   74°29′04″W
темп.,
°C
ветер,
м/с
пор.,
м/с
влажн.,
%
обл.,
%
осадки,
мм/ч
давл.,
гПа
погр.,
м
31 июля, сб
сб3123:00+19с49550 0.0 1015598
02:00+17ссз38620 0.0 1015424
05:00+15сз25640 0.0 1016200
08:00+17сз23590 0.0 1017314
11:00+22зсз23411 0.0 10161311
14:00+25зюз34360 0.0 10151737
17:00+25зсз35360 0.0 10141775
20:00+22юз235513 0.0 101475
1 августа, вс
вс123:00+19з12600 0.0 101543
02:00+18зюз11640 0.0 101518
05:00+17зсз11685 0.0 101515
08:00+20юз116020 0.0 1015181
11:00+25ююз344473 0.0 1014969
14:00+22ююз2663100 0.0 1013491
17:00+24ю466189 0.0 10121028
20:00+21ююв3681100 0.1 1011449
2 августа, пн
пн223:00+19юз269767 1.2 1011254
02:00+18зюз179938 2.5 1009258
05:00+18зсз29952 0.0 1009380
08:00+18зсз411870 0.0 1011686
11:00+23сз57526 0.0 10121373
14:00+27сз58380 0.0 10122001
17:00+27сз46330 0.0 10132193
20:00+23с23475 0.0 101577
3 августа, вт
вт323:00+20с395710 0.0 1017361
02:00+18ссз256099 0.0 1018154
05:00+17ссз2462100 0.0 1018131
08:00+19ссв1358100 0.0 1019204
11:00+23всв1250100 0.0 1020926
14:00+25в1142100 0.0 10191637
17:00+25в1143100 0.0 10171288
20:00+22юв1258100 0.0 101867
4 августа, ср
ср423:00+20ююз1172100 0.0 101942
02:00+19з1279100 0.0 101945
05:00+18сз1279100 0.0 101957
08:00+20ссз1166100 0.0 1021174
11:00+26всв1249100 0.0 10211151
14:00+29вюв2238100 0.0 10202116
17:00+28вюв3242100 0.0 10201533
20:00+23юв3562100 0.0 1022493